When you browse on this site, cookies collect data to enhance your experience and personalize the content and advertising you see.
Visit our Privacy Policy to learn more. By continuing to use the site, you agree to this use of cookies and data.
  • In Schweiz
  • Länderverzeichnis
  • Für 7 Tage
  • Wassertemperatur
  • Wetterkarte
  • Widgets
  • user-avatar
    Anmelden

    Stündliche Wetter Nam Dinh

    Heute, 24 September, Dienstag

    Zeit Temperatur Niederschläge Wind Luftdruck Luftfeuchtigkeit
    00:00 +25°C° 0 mm 1 m/S 763 mmHg 71%
    01:00 +25°C° 0 mm 1 m/S 763 mmHg 73%
    02:00 +24°C° 0 mm 2 m/S 763 mmHg 75%
    03:00 +24°C° 0 mm 2 m/S 763 mmHg 76%
    04:00 +23°C° 0 mm 2 m/S 762 mmHg 78%
    05:00 +24°C° 0 mm 3 m/S 763 mmHg 77%
    06:00 +24°C° 0 mm 3 m/S 763 mmHg 77%
    07:00 +25°C° 0 mm 3 m/S 763 mmHg 77%
    08:00 +27°C° 0 mm 3 m/S 764 mmHg 70%
    09:00 +29°C° 0 mm 4 m/S 764 mmHg 63%
    10:00 +30°C° 0 mm 4 m/S 764 mmHg 55%
    11:00 +32°C° 0 mm 4 m/S 763 mmHg 51%
    12:00 +33°C° 0 mm 3 m/S 763 mmHg 46%
    13:00 +34°C° 0 mm 3 m/S 762 mmHg 42%
    14:00 +34°C° 0 mm 3 m/S 762 mmHg 43%
    15:00 +33°C° 0 mm 3 m/S 761 mmHg 45%
    16:00 +33°C° 0 mm 3 m/S 761 mmHg 47%
    17:00 +30°C° 0 mm 3 m/S 761 mmHg 53%
    18:00 +28°C° 0 mm 3 m/S 762 mmHg 59%
    19:00 +26°C° 0 mm 2 m/S 762 mmHg 65%
    20:00 +26°C° 0 mm 2 m/S 763 mmHg 66%
    21:00 +26°C° 0 mm 2 m/S 763 mmHg 67%
    22:00 +26°C° 0 mm 1 m/S 764 mmHg 68%
    23:00 +26°C° 0 mm 1 m/S 763 mmHg 70%

    Morgen, 25 September, Mittwoch

    Zeit Temperatur Niederschläge Wind Luftdruck Luftfeuchtigkeit
    00:00 +25°C° 0 mm 1 m/S 763 mmHg 71%
    01:00 +25°C° 0 mm 1 m/S 762 mmHg 72%
    02:00 +25°C° 0 mm 2 m/S 762 mmHg 73%
    03:00 +24°C° 0 mm 2 m/S 762 mmHg 75%
    04:00 +24°C° 0 mm 3 m/S 762 mmHg 76%
    05:00 +24°C° 0 mm 3 m/S 763 mmHg 75%
    06:00 +25°C° 0 mm 3 m/S 763 mmHg 75%
    07:00 +25°C° 0 mm 3 m/S 763 mmHg 74%
    08:00 +27°C° 0 mm 3 m/S 763 mmHg 68%
    09:00 +28°C° 0 mm 4 m/S 764 mmHg 62%
    10:00 +30°C° 0 mm 4 m/S 764 mmHg 55%
    11:00 +31°C° 0 mm 3 m/S 764 mmHg 51%
    12:00 +33°C° 0 mm 3 m/S 763 mmHg 47%
    13:00 +34°C° 0 mm 3 m/S 763 mmHg 43%
    14:00 +34°C° 0 mm 3 m/S 762 mmHg 44%
    15:00 +34°C° 0 mm 2 m/S 762 mmHg 45%
    16:00 +32°C° 0 mm 2 m/S 762 mmHg 45%
    17:00 +31°C° 0 mm 2 m/S 762 mmHg 52%
    18:00 +29°C° 0 mm 2 m/S 762 mmHg 58%
    19:00 +27°C° 0 mm 2 m/S 762 mmHg 65%
    20:00 +27°C° 0 mm 2 m/S 763 mmHg 65%
    21:00 +27°C° 0 mm 1 m/S 763 mmHg 65%
    22:00 +27°C° 0 mm 1 m/S 764 mmHg 66%
    23:00 +27°C° 0 mm 1 m/S 763 mmHg 67%

    übermorgen, 26 September, Donnerstag

    Zeit Temperatur Niederschläge Wind Luftdruck Luftfeuchtigkeit
    00:00 +27°C° 0 mm 1 m/S 763 mmHg 68%
    01:00 +26°C° 0 mm 1 m/S 763 mmHg 69%
    02:00 +26°C° 0 mm 1 m/S 763 mmHg 71%
    03:00 +25°C° 0 mm 2 m/S 762 mmHg 73%
    04:00 +25°C° 0 mm 2 m/S 762 mmHg 74%
    05:00 +25°C° 0 mm 2 m/S 763 mmHg 75%
    06:00 +25°C° 0 mm 2 m/S 763 mmHg 75%
    07:00 +25°C° 0 mm 3 m/S 763 mmHg 75%
    08:00 +27°C° 0 mm 3 m/S 763 mmHg 67%
    09:00 +29°C° 0 mm 3 m/S 764 mmHg 59%
    10:00 +31°C° 0 mm 3 m/S 764 mmHg 52%
    11:00 +33°C° 0 mm 3 m/S 763 mmHg 48%
    12:00 +33°C° 0 mm 3 m/S 762 mmHg 45%
    13:00 +34°C° 0 mm 2 m/S 762 mmHg 41%
    14:00 +34°C° 0 mm 2 m/S 761 mmHg 43%
    15:00 +34°C° 0 mm 3 m/S 761 mmHg 45%
    16:00 +33°C° 0 mm 3 m/S 761 mmHg 46%
    17:00 +31°C° 0 mm 3 m/S 761 mmHg 53%
    18:00 +29°C° 0 mm 2 m/S 761 mmHg 60%
    19:00 +27°C° 0 mm 2 m/S 762 mmHg 66%
    20:00 +27°C° 0 mm 2 m/S 762 mmHg 67%
    21:00 +27°C° 0 mm 1 m/S 763 mmHg 68%
    22:00 +27°C° 0 mm 1 m/S 763 mmHg 69%
    23:00 +26°C° 0 mm 1 m/S 763 mmHg 70%

    27 September, Freitag

    Zeit Temperatur Niederschläge Wind Luftdruck Luftfeuchtigkeit
    00:00 +26°C° 0 mm 1 m/S 763 mmHg 71%
    01:00 +26°C° 0 mm 1 m/S 762 mmHg 71%
    02:00 +25°C° 0 mm 1 m/S 762 mmHg 73%
    03:00 +25°C° 0 mm 2 m/S 762 mmHg 74%
    04:00 +25°C° 0 mm 2 m/S 762 mmHg 75%
    05:00 +25°C° 0 mm 2 m/S 763 mmHg 75%
    06:00 +25°C° 0 mm 2 m/S 763 mmHg 75%
    07:00 +26°C° 0 mm 2 m/S 763 mmHg 75%
    08:00 +27°C° 0 mm 2 m/S 763 mmHg 69%
    09:00 +29°C° 0 mm 2 m/S 763 mmHg 63%
    10:00 +30°C° 0 mm 3 m/S 763 mmHg 56%
    11:00 +31°C° 0 mm 2 m/S 763 mmHg 53%
    12:00 +32°C° 0 mm 2 m/S 762 mmHg 49%
    13:00 +32°C° 0 mm 2 m/S 762 mmHg 46%
    14:00 +32°C° 0 mm 2 m/S 762 mmHg 47%
    15:00 +32°C° 0 mm 2 m/S 761 mmHg 49%
    16:00 +31°C° 0 mm 2 m/S 761 mmHg 50%
    17:00 +30°C° 0 mm 2 m/S 761 mmHg 55%
    18:00 +29°C° 0 mm 2 m/S 761 mmHg 60%
    19:00 +27°C° 0 mm 2 m/S 761 mmHg 65%
    20:00 +27°C° 0 mm 1 m/S 762 mmHg 67%
    21:00 +27°C° 0 mm 1 m/S 762 mmHg 68%
    22:00 +24°C° 0 mm 0 m/S 763 mmHg 70%
    23:00 +26°C° 0 mm 1 m/S 762 mmHg 70%

    28 September, Samstag

    Zeit Temperatur Niederschläge Wind Luftdruck Luftfeuchtigkeit
    00:00 +26°C° 0 mm 1 m/S 762 mmHg 70%
    01:00 +26°C° 0 mm 1 m/S 762 mmHg 71%
    02:00 +26°C° 0 mm 1 m/S 762 mmHg 72%
    03:00 +25°C° 0 mm 1 m/S 762 mmHg 73%
    04:00 +25°C° 0 mm 2 m/S 761 mmHg 74%
    05:00 +25°C° 0 mm 2 m/S 762 mmHg 74%
    06:00 +25°C° 0 mm 2 m/S 762 mmHg 74%
    07:00 +26°C° 0 mm 2 m/S 762 mmHg 74%
    08:00 +27°C° 0 mm 2 m/S 763 mmHg 68%
    09:00 +29°C° 0 mm 2 m/S 763 mmHg 61%
    10:00 +31°C° 0 mm 3 m/S 763 mmHg 54%
    11:00 +32°C° 0 mm 2 m/S 762 mmHg 51%
    12:00 +32°C° 0 mm 2 m/S 762 mmHg 47%
    13:00 +34°C° 0 mm 2 m/S 761 mmHg 44%
    14:00 +34°C° 0 mm 2 m/S 761 mmHg 44%
    15:00 +34°C° 0 mm 2 m/S 760 mmHg 45%
    16:00 +34°C° 0 mm 2 m/S 760 mmHg 45%
    17:00 +31°C° 0 mm 2 m/S 760 mmHg 53%
    18:00 +29°C° 0 mm 2 m/S 760 mmHg 60%
    19:00 +27°C° 0 mm 2 m/S 760 mmHg 67%
    20:00 +27°C° 0 mm 2 m/S 761 mmHg 68%
    21:00 +27°C° 0 mm 2 m/S 762 mmHg 69%
    22:00 +27°C° 0 mm 1 m/S 762 mmHg 71%
    23:00 +26°C° 0 mm 1 m/S 762 mmHg 72%

    29 September, Sonntag

    Zeit Temperatur Niederschläge Wind Luftdruck Luftfeuchtigkeit
    00:00 +26°C° 0 mm 1 m/S 761 mmHg 73%
    01:00 +26°C° 0 mm 1 m/S 761 mmHg 74%
    02:00 +25°C° 0 mm 1 m/S 761 mmHg 75%
    03:00 +25°C° 0 mm 1 m/S 761 mmHg 76%
    04:00 +25°C° 0 mm 1 m/S 761 mmHg 77%
    05:00 +25°C° 0 mm 1 m/S 761 mmHg 76%
    06:00 +26°C° 0 mm 1 m/S 761 mmHg 75%
    07:00 +26°C° 0 mm 1 m/S 761 mmHg 75%
    08:00 +28°C° 0 mm 2 m/S 761 mmHg 68%
    09:00 +30°C° 0 mm 2 m/S 762 mmHg 61%
    10:00 +32°C° 0 mm 2 m/S 762 mmHg 54%
    11:00 +33°C° 0 mm 1 m/S 761 mmHg 50%
    12:00 +34°C° 0 mm 1 m/S 760 mmHg 46%
    13:00 +35°C° 0 mm 1 m/S 760 mmHg 42%
    14:00 +35°C° 0 mm 2 m/S 759 mmHg 45%
    15:00 +35°C° 0 mm 3 m/S 759 mmHg 47%
    16:00 +34°C° 0 mm 3 m/S 758 mmHg 50%
    17:00 +31°C° 0 mm 3 m/S 758 mmHg 56%
    18:00 +29°C° 0 mm 3 m/S 759 mmHg 62%
    19:00 +28°C° 0 mm 3 m/S 759 mmHg 69%
    20:00 +27°C° 0 mm 3 m/S 759 mmHg 70%
    21:00 +27°C° 0 mm 2 m/S 760 mmHg 72%
    22:00 +27°C° 0 mm 2 m/S 760 mmHg 74%
    23:00 +26°C° 0 mm 2 m/S 760 mmHg 75%
    Mehr zeigen